Location: Fishcreek Rd Observing Site
(41.1865°N, 81.4271°W)
Time: 10:44:25
(UTC-04:00)

Iridium 75 - Visible Passes

Search period start: 27 April 2017 00:00
Search period end: 07 May 2017 00:00
Orbit: 776 x 779 km, 86.4° (Epoch: 25 April)

Date Brightness Start Highest point End Pass type
(mag) Time Alt. Az. Time Alt. Az. Time Alt. Az.
27 Apr 7.7 02:40:14 26° E 02:40:25 26° E 02:44:40 10° NNE visible
27 Apr 6.7 04:20:43 35° W 04:20:56 35° W 04:25:43 10° NNW visible
28 Apr 8.4 02:06:52 14° E 02:07:13 14° ENE 02:09:55 10° NE visible
28 Apr 6.0 03:47:21 65° W 03:47:21 65° W 03:52:30 10° N visible
29 Apr 6.2 03:13:59 68° ENE 03:13:59 68° ENE 03:18:58 10° N visible
29 Apr 7.9 04:54:27 14° W 04:55:02 14° WNW 04:57:40 10° NW visible
30 Apr 7.1 02:40:36 37° E 02:40:36 37° E 02:45:09 10° NNE visible
30 Apr 7.2 04:21:04 25° W 04:21:10 25° WNW 04:25:26 10° NNW visible
01 May 8.0 02:07:13 21° ENE 02:07:13 21° ENE 02:10:53 10° NNE visible
01 May 6.5 03:47:41 44° WNW 03:47:41 44° WNW 03:52:27 10° N visible
02 May 8.6 01:33:49 11° ENE 01:33:57 11° ENE 01:35:19 10° ENE visible
02 May 6.0 03:14:17 75° NNW 03:14:17 75° NNW 03:19:06 10° N visible
03 May 6.6 02:40:53 51° ENE 02:40:53 51° ENE 02:45:28 10° NNE visible
03 May 7.7 04:21:21 18° WNW 04:21:27 18° WNW 04:24:55 10° NNW visible
04 May 7.5 02:07:28 29° ENE 02:07:28 29° ENE 02:11:29 10° NNE visible
04 May 7.0 03:47:56 31° WNW 03:47:56 31° WNW 03:52:16 10° NNW visible
05 May 8.2 01:34:03 16° ENE 01:34:03 16° ENE 01:36:57 10° NE visible
05 May 6.3 03:14:31 54° WNW 03:14:31 54° WNW 03:19:08 10° N visible
06 May 6.3 02:41:05 67° NNE 02:41:05 67° NNE 02:45:40 10° N visible
06 May 8.1 04:21:33 12° WNW 04:21:48 12° WNW 04:23:48 10° NW visible
